Location: Oklahoma City
(35.4680°N, 97.5160°W)
Time: 22:54:50
(UTC-05:00)

ISS - All Passes

Search period start: 31 August 2015 00:00
Search period end: 10 September 2015 00:00
Orbit: 401 x 402 km, 51.6° (Epoch: 31 August)

Date Brightness Start Highest point End Pass type
(mag) Time Alt. Az. Time Alt. Az. Time Alt. Az.
31 Aug - 08:54:56 10° SSW 08:57:46 28° SE 09:00:38 10° ENE daylight
31 Aug - 10:31:27 10° W 10:34:11 24° NNW 10:36:54 10° NNE daylight
31 Aug - 15:25:28 10° N 15:27:11 14° NNE 15:28:59 10° ENE daylight
31 Aug - 17:00:44 10° NW 17:03:59 77° SW 17:07:13 10° SE daylight
01 Sep - 08:03:01 10° SSE 08:04:39 14° SE 08:06:24 10° E daylight
01 Sep - 09:37:41 10° WSW 09:40:48 45° NW 09:43:57 10° NE daylight
01 Sep - 16:07:33 10° NW 16:10:43 47° NE 16:13:51 10° ESE daylight
01 Sep - 17:45:14 10° W 17:46:51 13° SW 17:48:20 10° SSW daylight
02 Sep - 08:44:17 10° SW 08:47:32 81° SE 08:50:47 10° NE daylight
02 Sep - 10:22:37 10° WNW 10:24:20 13° NNW 10:25:59 10° N daylight
02 Sep - 15:14:34 10° NNW 15:17:19 25° NNE 15:20:05 10° E daylight
02 Sep - 16:50:54 10° WNW 16:53:43 27° SW 16:56:30 10° S daylight
03 Sep - 07:51:21 10° SSW 07:54:19 34° SE 07:57:20 10° ENE daylight
03 Sep - 09:28:13 10° W 09:30:48 21° NNW 09:33:22 10° NNE daylight
03 Sep - 14:21:50 10° N 14:23:50 15° NNE 14:25:52 10° ENE daylight
03 Sep - 15:57:19 10° NW 16:00:33 62° SW 16:03:44 10° SE daylight
04 Sep - 06:59:06 10° S 07:01:10 16° SE 07:03:19 10° E daylight
04 Sep - 08:34:19 10° WSW 08:37:23 38° NW 08:40:26 10° NNE daylight
04 Sep - 15:04:03 10° NW 15:07:15 57° NE 15:10:28 10° ESE daylight
04 Sep - 16:42:31 10° WSW 16:43:21 11° SW 16:44:02 10° SW daylight
05 Sep - 07:40:48 10° SW 07:44:02 83° NW 07:47:18 10° NE daylight
05 Sep - 09:19:32 10° NW 09:20:55 12° NNW 09:22:16 10° N daylight
05 Sep - 14:11:00 10° NNW 14:13:52 28° NE 14:16:46 10° E daylight
05 Sep - 15:47:34 10° WNW 15:50:12 23° SW 15:52:48 10° S daylight
06 Sep - 06:47:42 10° SSW 06:50:47 42° SE 06:53:53 10° ENE daylight
06 Sep - 08:24:56 10° WNW 08:27:21 19° NNW 08:29:44 10° NNE daylight
06 Sep - 13:18:10 10° NNW 13:20:22 17° NNE 13:22:38 10° ENE daylight
06 Sep - 14:53:50 10° WNW 14:57:00 50° SW 15:00:09 10° SSE daylight
07 Sep - 05:55:13 10° S 05:57:36 19° SE 06:00:02 10° E visible
07 Sep - 07:30:53 10° WSW 07:33:52 32° NW 07:36:51 10° NNE daylight
07 Sep - 12:25:50 10° N 12:26:46 11° NNE 12:27:48 10° NE daylight
07 Sep - 14:00:29 10° NW 14:03:43 69° NE 14:06:57 10° SE daylight
08 Sep - 06:37:15 10° SW 06:40:28 68° NW 06:43:43 10° NE visible
08 Sep - 08:16:27 10° NW 08:17:26 11° NNW 08:18:20 10° N daylight
08 Sep - 13:07:21 10° NNW 13:10:20 33° NE 13:13:19 10° ESE daylight
08 Sep - 14:44:11 10° W 14:46:36 19° SW 14:48:57 10° S daylight
09 Sep - 05:44:01 10° SSW 05:47:10 51° SE 05:50:21 10° ENE visible
09 Sep - 07:21:34 10° WNW 07:23:49 17° NNW 07:26:00 10° NNE daylight
09 Sep - 12:14:26 10° NNW 12:16:50 19° NNE 12:19:16 10° E daylight
09 Sep - 13:50:18 10° WNW 13:53:23 41° SW 13:56:27 10° SSE daylight
